Jefferson, NC

8:17 AM EDT on May 23, 2017 (GMT -0400)
Ashe County

Weather History for KGEV - May, 2013

Change the Weather History Date:

Tuesday, May 7, 2013

  Actual Average Record
Temperature  
Mean Temperature 50 °F -  
Max Temperature 54 °F 69 °F 82 °F (1986)
Min Temperature 45 °F 44 °F 27 °F (1968)
Degree Days  
Heating Degree Days 16    
Moisture  
Dew Point 46 °F    
Average Humidity 91    
Maximum Humidity 95    
Minimum Humidity 72    
Precipitation  
Precipitation 0.21 in - - ()
Sea Level Pressure  
Sea Level Pressure 29.92 in    
Wind  
Wind Speed 2 mph (NW)    
Max Wind Speed 10 mph    
Max Gust Speed 17 mph    
Visibility 6 miles    
Events Fog , Rain    
Averages and records for this station are not official NWS values.
T = Trace of Precipitation, MM = Missing Value Source: NWS Daily Summary

Daily Weather History Graph

Daily Weather History Graph

Search for Another Location

Airport or City:

Trip Planner

Search our weather history database for the weather conditions in past years. The results will help you decide how hot, cold, wet, or windy it might be!

Date:

Astronomy

May. 07, 2013 Rise Set
Actual Time 6:25 AM EDT 8:19 PM EDT
Civil Twilight 5:57 AM EDT 8:47 PM EDT
Nautical Twilight 5:23 AM EDT 9:21 PM EDT
Astronomical Twilight 4:47 AM EDT 9:58 PM EDT
Moon 4:55 AM EDT (5/7) 6:20 PM EDT (5/7)
Length of Visible Light 14h 49m
Length of Day
13h 53m
Waning Crescent, 5% of the Moon is Illuminated
May 7
Waning Crescent
May 9
New
May 18
First Quarter
May 25
Full
May 31
Last Quarter

Hourly Weather History & Observations

Time (EDT) Temp. Windchill Dew Point Humidity Pressure Visibility Wind Dir Wind Speed Gust Speed Precip Events Conditions
12:15 AM 47.3 °F - 45.7 °F 94% 29.92 in 10.0 mi WSW 3.5 mph - N/A   Scattered Clouds
12:35 AM 47.3 °F - 45.7 °F 94% 29.92 in 5.0 mi Calm Calm - N/A   Mostly Cloudy
12:55 AM 45.7 °F 44.4 °F 44.1 °F 94% 29.93 in 1.5 mi North 3.5 mph - N/A   Overcast
1:15 AM 45.1 °F - 43.5 °F 94% 29.93 in 0.5 mi Calm Calm - N/A Fog Fog
1:35 AM 45.5 °F 43.2 °F 43.9 °F 94% 29.92 in 0.5 mi NNW 4.6 mph - N/A Fog Fog
1:55 AM 45.7 °F - 44.1 °F 94% 29.92 in 0.2 mi Calm Calm - N/A Fog Fog
2:15 AM 46.6 °F - 45.1 °F 95% 29.91 in 0.5 mi Calm Calm - N/A Fog Fog
2:35 AM 46.4 °F - 44.6 °F 93% 29.91 in 0.2 mi Calm Calm - N/A Fog Fog
2:55 AM 46.8 °F - 45.1 °F 94% 29.90 in 0.2 mi Calm Calm - N/A Fog Fog
3:15 AM 46.2 °F - 44.6 °F 94% 29.90 in 0.2 mi Calm Calm - N/A Rain Light Rain
3:35 AM 46.9 °F - 45.5 °F 95% 29.90 in 0.2 mi Calm Calm - N/A Fog Fog
3:55 AM 46.4 °F - 44.6 °F 93% 29.89 in 0.2 mi Calm Calm - N/A Fog Fog
4:15 AM 47.3 °F - 45.7 °F 94% 29.89 in 0.2 mi Calm Calm - N/A Fog Fog
4:35 AM 47.7 °F - 46.0 °F 94% 29.89 in 0.2 mi Calm Calm - N/A Fog Fog
4:55 AM 47.7 °F - 46.0 °F 94% 29.89 in 0.2 mi Calm Calm - N/A Fog Fog
5:15 AM 48.2 °F - 46.6 °F 94% 29.89 in 4.0 mi Calm Calm - N/A   Overcast
5:35 AM 47.5 °F - 45.9 °F 94% 29.89 in 0.2 mi Calm Calm - N/A Fog Fog
5:55 AM 46.8 °F - 45.1 °F 94% 29.89 in 0.2 mi Calm Calm - N/A Fog Fog
6:15 AM 47.3 °F - 45.7 °F 94% 29.89 in 0.2 mi Calm Calm - N/A Fog Fog
6:35 AM 47.7 °F - 46.0 °F 94% 29.90 in 0.8 mi Calm Calm - N/A   Drizzle
6:55 AM 47.5 °F - 45.9 °F 94% 29.90 in 0.8 mi NW 3.5 mph - N/A Rain Rain
7:15 AM 48.2 °F - 46.4 °F 93% 29.90 in 4.0 mi Calm Calm - N/A   Overcast
7:35 AM 47.7 °F - 46.2 °F 95% 29.90 in 0.2 mi Calm Calm - N/A Rain Light Rain
7:55 AM 48.2 °F - 46.4 °F 93% 29.91 in 0.2 mi Calm Calm - N/A Rain Rain
8:15 AM 48.4 °F - 46.8 °F 94% 29.91 in 3.0 mi Calm Calm - N/A   Overcast
8:35 AM 48.7 °F - 47.1 °F 94% 29.92 in 3.0 mi Calm Calm - N/A   Overcast
8:55 AM 48.9 °F - 47.3 °F 94% 29.92 in 7.0 mi Calm Calm - N/A   Overcast
9:15 AM 49.3 °F - 47.7 °F 94% 29.92 in 10.0 mi North 3.5 mph - N/A   Overcast
9:35 AM 50.0 °F - 48.4 °F 94% 29.93 in 7.0 mi ENE 6.9 mph - N/A Rain Light Rain
9:55 AM 49.8 °F - 48.2 °F 94% 29.94 in 1.0 mi Calm Calm - N/A Rain Light Rain
10:15 AM 50.2 °F - 48.6 °F 94% 29.94 in 2.0 mi Calm Calm - N/A Rain Light Rain
10:35 AM 51.6 °F - 50.0 °F 94% 29.93 in 10.0 mi NE 3.5 mph - N/A   Overcast
10:55 AM 50.9 °F - 49.1 °F 94% 29.94 in 10.0 mi ENE 5.8 mph - N/A   Overcast
11:15 AM 50.9 °F - 48.7 °F 92% 29.94 in 10.0 mi ENE 4.6 mph - N/A   Overcast
11:35 AM 51.6 °F - 48.2 °F 88% 29.94 in 10.0 mi Calm Calm - N/A Rain Light Rain
11:55 AM 54.1 °F - 48.4 °F 81% 29.93 in 10.0 mi WNW 3.5 mph - N/A   Overcast
12:15 PM 53.6 °F - 49.3 °F 85% 29.93 in 10.0 mi Calm Calm - N/A Rain Light Rain
12:35 PM 53.2 °F - 48.0 °F 82% 29.93 in 10.0 mi WNW 3.5 mph - N/A Rain Rain
12:55 PM 52.5 °F - 49.1 °F 88% 29.93 in 1.5 mi Calm Calm - 0.06 in Rain Heavy Rain
1:15 PM 52.9 °F - 46.9 °F 80% 29.92 in 10.0 mi WNW 8.1 mph - N/A Rain Light Rain
1:35 PM 53.2 °F - 44.2 °F 72% 29.91 in 10.0 mi WNW 9.2 mph - N/A Rain Light Rain
1:55 PM 52.9 °F - 45.1 °F 75% 29.92 in 10.0 mi Calm Calm - N/A   Overcast
2:15 PM 52.3 °F - 44.1 °F 73% 29.92 in 10.0 mi NNW 6.9 mph - N/A Rain Light Rain
2:35 PM 50.9 °F - 45.7 °F 82% 29.92 in 10.0 mi NW 4.6 mph - N/A Rain Light Rain
2:55 PM 50.0 °F - 46.6 °F 88% 29.92 in 10.0 mi NNW 9.2 mph 17.3 mph N/A Rain Light Rain
3:35 PM 48.6 °F - 45.5 °F 89% 29.92 in 7.0 mi North 8.1 mph - 0.03 in Rain Rain
3:55 PM 47.7 °F - 44.6 °F 89% 29.92 in 7.0 mi North 5.8 mph - 0.06 in Rain Rain
4:15 PM 47.8 °F - 44.6 °F 89% 29.92 in 10.0 mi North 4.6 mph - N/A Rain Light Rain
4:35 PM 48.2 °F - 44.6 °F 87% 29.92 in 10.0 mi North 4.6 mph - N/A Rain Light Rain
5:15 PM 48.9 °F - 45.5 °F 88% 29.92 in 10.0 mi Calm Calm - N/A Rain Light Rain
5:35 PM 48.7 °F - 46.0 °F 90% 29.92 in 10.0 mi Calm Calm - N/A   Light Drizzle
5:55 PM 48.6 °F - 46.2 °F 92% 29.93 in 7.0 mi Calm Calm - N/A Rain Rain
6:15 PM 48.4 °F - 46.2 °F 92% 29.93 in 5.0 mi Calm Calm - N/A Rain Light Rain
6:35 PM 48.6 °F - 46.6 °F 93% 29.93 in 5.0 mi Calm Calm - N/A Rain Rain
6:55 PM 48.7 °F - 46.6 °F 92% 29.93 in 3.0 mi Calm Calm - N/A Rain Light Rain
7:15 PM 48.9 °F - 47.1 °F 93% 29.93 in 3.0 mi Calm Calm - N/A   Light Drizzle
7:35 PM 48.4 °F - 46.6 °F 93% 29.94 in 7.0 mi Calm Calm - N/A   Overcast
7:55 PM 48.4 °F - 46.6 °F 93% 29.94 in 7.0 mi East 4.6 mph - N/A   Overcast
8:15 PM 48.4 °F - 46.6 °F 93% 29.95 in 1.2 mi Calm Calm - 0.01 in Rain Rain
8:35 PM 48.4 °F - 46.6 °F 93% 29.95 in 5.0 mi Calm Calm - 0.02 in Rain Rain
8:55 PM 47.8 °F - 46.0 °F 93% 29.94 in 4.0 mi WSW 3.5 mph - 0.08 in Rain Heavy Rain
9:15 PM 48.2 °F - 46.4 °F 93% 29.94 in 10.0 mi WSW 3.5 mph - 0.01 in Rain Light Rain
9:35 PM 48.0 °F - 45.7 °F 92% 29.93 in 10.0 mi WNW 6.9 mph - 0.01 in   Mostly Cloudy
9:55 PM 48.4 °F - 45.1 °F 89% 29.93 in 10.0 mi West 10.4 mph - 0.01 in   Clear
10:15 PM 48.4 °F - 45.0 °F 88% 29.93 in 10.0 mi West 10.4 mph 17.3 mph N/A   Clear
10:35 PM 48.6 °F - 44.8 °F 87% 29.94 in 10.0 mi West 9.2 mph - N/A   Clear
10:55 PM 48.4 °F - 44.6 °F 87% 29.96 in 10.0 mi WNW 5.8 mph - N/A   Clear
11:15 PM 48.0 °F - 44.6 °F 88% 29.96 in 10.0 mi Calm Calm - N/A   Mostly Cloudy
11:55 PM 48.4 °F - 44.2 °F 86% 29.96 in 10.0 mi NW 3.5 mph - N/A   Mostly Cloudy